FENGYUN 1C DEB, 31817

Orbit data source: Space-Track

FENGYUN 1C DEB, 31817 is space debris in SSO originally from a launch on Mon, 10 May 1999 UTC launched from the Taiyaun Space Center, China (TSC). Fengyun 1C debris stems from the Chinese weather satellite Fengyun-1C, which was intentionally destroyed by a Chinese anti-satellite missile in 2007. This event dramatically increased the amount of space debris, with thousands of trackable fragments posing hazards to satellites and human spaceflight. The Fengyun 1C debris cloud has become a focal point in discussions about space sustainability and the need for international regulations to prevent the creation of new debris.

Loading next visibility...
Identifier
31817, 1999-025CHF
Orbit
SSO
Country
Flag of CNCN / PRC
Related business
Manufacturer
Unknown
Mission
Spacecraft
Bus & Motor
Unknown
Mass
Unknown
Launch date (UTC)
1999-05-10 (27 years ago)
Launch vehicle
Unknown
Launch site
Taiyaun Space Center, China (TSC)
Object type
Payload
Rocket body
Debris
Shape & HBR
Unknown shape, 0.1 m
Radar Cross Section
Small (<0.1 m²)

Expand to show TLE details & history
Last TLE update: 3 days ago

TLE from 3 days ago
0 FENGYUN 1C DEB
1 31817U 99025CHF 26104.77413825  .00003426  00000-0  59552-3 0  9999
2 31817  98.9197 116.8448 0060614  56.9274 303.7728 14.67697690732093
Epoch: 2026-04-14T18:34Z
TLE epoch observation values (Epoch: 2026-04-14T18:34:45.544Z)
Latitude
-0.00009°
Longitude
-4.79052°
Altitude
647.831 km
Speed
7.546 km/s
True Right ascension
07h 47m 22s
True Declination
0° 00' 00"
Sunlit
Object was in daylight at epoch
Visualization orbit readout
Latitude
Unknown
Longitude
Unknown
Altitude
Unknown
Speed
Unknown
Apparent Right ascension
Unknown
Apparent Declination
Unknown
Sunlit
N/A
Visualization observer readout
Local Sidereal Time
22:10:40
Azimuth
Unknown
Elevation
Unknown
Doppler factor
Unknown
Orbital elements
Apogee altitude
708.227 km
Perigee altitude
622.838 km
Semi-major axis
7,043.67 km
Eccentricity
0.00606
Inclination
98.9197°
RAAN
116.8448°
Arg. of periapsis
56.9274°
True anomaly
303.193°
Mean anomaly
303.7728°
Eccentric anomaly
303.48314°
Mean motion
3.67151 °/min
Orbital period
98.05 mins
BSTAR
0.00059552
Loading maneuver chart data...
Computing Atmospheric mass density...

Documentation

Showing up to 5 results
|